CAPE
10 12 14 16 14 15 21 20 17 1 0 0 0 0 0 0 0 0 0 1 2 0 1 0 0 0 0 0 0 0 0 0 0 0 0 0 0 0 0 0 0 0 0 0
4 4 4 6 15 17 11 28 5 2 1 0 0 0 2 3 6 0 1 3 1 0 0 0 0 0 0 0 0 0 0 0 0 0 0 0 0 0 0 0 0 0 0 0
7 9 7 8 4 9 5 11 17 0 0 0 0 1 0 1 0 3 2 1 5 1 1 0 0 0 0 0 0 7 3 0 0 0 0 0 0 0 0 0 0 0 0 0
9 13 9 13 5 4 3 19 18 12 1 0 0 0 0 0 0 0 0 0 4 4 1 1 0 0 0 0 3 2 0 0 0 0 0 0 0 0 0 0 0 0 0 0
11 13 13 6 9 6 3 0 50 21 1 0 1 0 0 0 0 1 1 0 1 1 0 0 0 0 0 0 0 0 0 0 0 0 0 0 0 0 0 0 0 0 0 0
18 20 8 11 6 2 0 1 2 18 1 0 0 0 0 0 0 0 0 0 0 0 0 0 0 0 0 0 0 0 0 0 0 0 0 0 0 0 0 0 0 0 0 0
18 7 21 11 10 15 11 2 3 2 0 0 0 0 0 0 0 1 0 0 0 0 0 0 0 0 0 0 0 0 0 0 0 0 0 0 0 0 0 0 0 0 0 0
11 11 15 12 14 0 0 1 0 0 0 0 0 0 0 0 0 0 0 0 0 0 0 0 0 0 0 0 0 0 0 0 0 0 0 0 0 0 0 0 0 0 0 0
3 7 8 10 7 0 0 0 0 0 0 0 0 0 0 0 0 0 0 0 0 0 1 0 0 0 0 0 0 0 0 0 0 0 0 0 0 0 0 0 0 0 0 0
0 0 0 0 0 0 0 0 0 0 0 0 0 0 0 0 0 0 0 0 0 0 0 0 0 0 0 0 0 0 0 0 0 0 0 0 0 0 0 0 0 0 0 0
0 0 0 0 0 0 0 0 0 0 0 0 0 0 0 0 0 0 0 0 0 0 0 0 0 0 0 0 0 0 0 0 0 0 0 0 0 0 0 0 0 0 0 0
0 0 0 0 0 0 0 0 0 0 0 0 0 0 0 0 0 0 0 0 0 0 0 0 0 0 0 0 0 0 0 0 0 0 0 0 0 0 0 0 0 0 0 0
0 0 0 0 0 0 0 0 0 0 0 0 0 0 0 0 0 0 0 0 0 0 0 0 0 0 0 0 0 0 0 0 0 0 0 0 0 0 0 0 0 0 0 0
0 0 0 0 0 0 0 0 0 0 0 0 0 0 0 0 0 0 0 0 0 0 0 0 0 0 0 0 0 0 0 0 0 0 0 0 0 0 0 0 0 0 0 0
0 0 0 0 0 0 0 0 0 0 0 0 0 0 0 0 0 0 0 0 0 0 0 0 0 0 0 0 0 0 0 0 0 0 0 0 0 0 0 0 0 0 0 0
0 0 0 0 0 0 0 0 0 0 0 0 0 0 0 0 0 0 0 0 0 0 0 0 0 0 0 0 0 0 0 0 0 0 0 0 0 0 0 0 0 0 0 0
0 0 0 0 0 0 0 0 0 0 0 0 0 0 0 0 0 0 0 0 0 0 0 0 0 0 0 0 0 0 0 0 0 0 0 0 0 0 0 0 0 0 0 0
0 0 0 0 0 0 0 0 0 0 0 0 0 0 0 0 0 0 0 0 0 0 0 0 0 0 0 0 0 0 0 0 0 0 0 0 0 0 0 0 0 0 0 0
0 0 0 0 0 0 0 0 0 0 0 0 0 0 0 0 0 0 0 0 0 0 0 0 0 0 0 0 0 0 0 0 0 0 0 0 0 0 0 0 0 0 0 0
0 0 0 0 0 0 0 0 0 0 0 0 0 0 0 0 0 0 0 0 0 0 0 0 0 0 0 0 0 0 0 0 0 0 0 0 0 0 0 0 0 0 0 0
0 0 0 0 0 0 0 0 0 0 0 0 0 0 0 0 0 0 0 0 0 0 0 0 0 0 0 0 0 0 0 0 0 0 0 0 0 0 0 0 0 0 0 0
0 0 0 0 0 0 0 0 0 0 0 0 0 0 0 0 0 0 0 0 0 0 0 0 0 0 0 0 0 0 0 0 0 0 0 0 0 0 0 0 0 0 0 0
0 0 0 0 0 0 0 0 0 0 0 0 0 0 0 0 0 0 0 0 0 0 0 0 0 0 0 0 0 0 0 0 0 0 0 0 0 0 0 0 0 0 0 0
0 0 0 0 0 0 0 0 0 0 0 0 0 0 0 0 0 0 0 0 0 0 0 0 0 0 0 0 0 0 0 0 0 0 0 0 0 0 0 0 0 0 0 0
0 0 0 0 0 0 0 0 0 0 0 0 0 0 0 0 0 0 0 0 0 0 0 0 0 0 0 0 0 0 0 0 0 0 0 0 0 0 0 0 0 0 0 0
0 0 0 0 0 0 0 0 0 0 0 0 0 0 0 0 0 0 0 0 0 0 0 0 0 0 0 0 0 0 0 0 0 0 0 0 0 0 0 0 0 0 0 0
0 0 0 0 0 0 0 0 0 0 0 0 0 0 0 0 0 0 0 0 0 0 0 0 0 0 0 0 0 0 0 0 0 0 0 0 0 0 0 0 0 0 0 0
CIN
0 0 0 0 0 0 -1 0 -1 0 0 0 0 0 0 0 0 0 0 0 0 0 -5 0 0 0 0 0 0 0 0 0 0 0 0 0 0 0 0 0 0 0 0 0
0 0 0 0 0 0 0 -1 -6 0 0 0 0 0 0 0 -3 0 -1 0 0 0 0 -1 0 0 0 0 0 0 0 0 0 0 0 0 0 0 0 0 0 0 0 0
0 0 0 0 0 0 0 -4 -2 0 0 0 0 -9 0 0 0 -2 0 0 -2 -1 0 0 0 0 0 0 0 -9 0 0 0 0 0 0 0 0 0 0 0 0 0 0
0 0 0 0 0 0 0 0 -1 -26 -29 0 0 0 0 -2 0 0 0 0 0 -2 0 -2 0 0 0 0 0 0 0 0 0 0 0 0 0 0 0 0 0 0 0 0
0 0 0 0 0 0 0 0 -3 -10 -1 0 0 0 0 0 0 0 0 0 0 0 0 0 0 0 0 0 0 0 0 0 0 0 0 0 0 0 0 0 0 0 0 0
0 0 0 0 0 0 0 -1 -1 -1 -1 0 0 0 0 0 0 0 0 0 0 0 0 0 0 0 0 0 0 0 0 0 0 0 0 0 0 0 0 0 0 0 0 0
0 0 0 0 0 0 -2 0 -2 -2 0 0 0 0 0 0 0 0 0 0 0 0 0 0 0 0 0 0 0 0 0 0 0 0 0 0 0 0 0 0 0 0 0 0
0 0 0 0 -2 0 0 0 0 0 0 0 0 0 0 0 0 0 0 0 0 0 0 0 0 0 0 0 0 0 0 0 0 0 0 0 0 0 0 0 0 0 0 0
0 0 0 0 0 0 0 0 0 0 0 0 0 0 0 0 0 0 0 0 0 0 0 0 0 0 0 0 0 0 0 0 0 0 0 0 0 0 0 0 0 0 0 0
0 0 0 0 0 0 0 0 0 0 0 0 0 0 0 0 0 0 0 0 0 0 0 0 0 0 0 0 0 0 0 0 0 0 0 0 0 0 0 0 0 0 0 0
0 0 0 0 0 0 0 0 0 0 0 0 0 0 0 0 0 0 0 0 0 0 0 0 0 0 0 0 0 0 0 0 0 0 0 0 0 0 0 0 0 0 0 0
0 0 0 0 0 0 0 0 0 0 0 0 0 0 0 0 0 0 0 0 0 0 0 0 0 0 0 0 0 0 0 0 0 0 0 0 0 0 0 0 0 0 0 0
0 0 0 0 0 0 0 0 0 0 0 0 0 0 0 0 0 0 0 0 0 0 0 0 0 0 0 0 0 0 0 0 0 0 0 0 0 0 0 0 0 0 0 0
0 0 0 0 0 0 0 0 0 0 0 0 0 0 0 0 0 0 0 0 0 0 0 0 0 0 0 0 0 0 0 0 0 0 0 0 0 0 0 0 0 0 0 0
0 0 0 0 0 0 0 0 0 0 0 0 0 0 0 0 0 0 0 0 0 0 0 0 0 0 0 0 0 0 0 0 0 0 0 0 0 0 0 0 0 0 0 0
0 0 0 0 0 0 0 0 0 0 0 0 0 0 0 0 0 0 0 0 0 0 0 0 0 0 0 0 0 0 0 0 0 0 0 0 0 0 0 0 0 0 0 0
0 0 0 0 0 0 0 0 0 0 0 0 0 0 0 0 0 0 0 0 0 0 0 0 0 0 0 0 0 0 0 0 0 0 0 0 0 0 0 0 0 0 0 0
0 0 0 0 0 0 0 0 0 0 0 0 0 0 0 0 0 0 0 0 0 0 0 0 0 0 0 0 0 0 0 0 0 0 0 0 0 0 0 0 0 0 0 0
0 0 0 0 0 0 0 0 0 0 0 0 0 0 0 0 0 0 0 0 0 0 0 0 0 0 0 0 0 0 0 0 0 0 0 0 0 0 0 0 0 0 0 0
0 0 0 0 0 0 0 0 0 0 0 0 0 0 0 0 0 0 0 0 0 0 0 0 0 0 0 0 0 0 0 0 0 0 0 0 0 0 0 0 0 0 0 0
0 0 0 0 0 0 0 0 0 0 0 0 0 0 0 0 0 0 0 0 0 0 0 0 0 0 0 0 0 0 0 0 0 0 0 0 0 0 0 0 0 0 0 0
0 0 0 0 0 0 0 0 0 0 0 0 0 0 0 0 0 0 0 0 0 0 0 0 0 0 0 0 0 0 0 0 0 0 0 0 0 0 0 0 0 0 0 0
0 0 0 0 0 0 0 0 0 0 0 0 0 0 0 0 0 0 0 0 0 0 0 0 0 0 0 0 0 0 0 0 0 0 0 0 0 0 0 0 0 0 0 0
0 0 0 0 0 0 0 0 0 0 0 0 0 0 0 0 0 0 0 0 0 0 0 0 0 0 0 0 0 0 0 0 0 0 0 0 0 0 0 0 0 0 0 0
0 0 0 0 0 0 0 0 0 0 0 0 0 0 0 0 0 0 0 0 0 0 0 0 0 0 0 0 0 0 0 0 0 0 0 0 0 0 0 0 0 0 0 0
0 0 0 0 0 0 0 0 0 0 0 0 0 0 0 0 0 0 0 0 0 0 0 0 0 0 0 0 0 0 0 0 0 0 0 0 0 0 0 0 0 0 0 0
0 0 0 0 0 0 0 0 0 0 0 0 0 0 0 0 0 0 0 0 0 0 -2 0 0 0 0 0 0 0 0 0 0 0 0 0 0 0 0 0 0 0 0 0
Wind_Speed
21 21 21 21 20 22 5 3 6 2 2 3 4 6 6 6 7 8 12 6 12 9 9 7 9 11 11 9 8 8 8 5 5 7 2 2 3 2 3 3 4 4 2 3
20 20 20 19 18 17 5 4 3 1 2 8 9 6 8 9 9 12 8 10 10 9 8 8 11 7 8 9 12 7 6 4 1 4 3 4 5 4 3 2 2 4 4 3
21 21 21 19 17 17 5 5 5 2 2 2 4 14 14 12 13 21 13 11 14 11 12 13 6 7 5 9 10 16 12 7 9 9 4 4 5 7 4 2 2 2 4 5
24 23 21 19 16 16 3 3 6 2 4 5 13 14 8 19 13 11 8 7 19 17 12 15 18 15 8 5 10 7 8 6 7 10 9 9 12 13 15 7 3 2 4 6
23 22 19 20 19 18 3 3 4 4 5 9 11 15 6 9 10 10 8 11 16 17 11 7 7 7 9 7 8 7 8 0 6 8 16 20 21 10 9 8 6 11 9 8
25 21 19 19 17 11 3 4 5 4 12 6 5 5 7 8 13 3 9 10 6 15 6 9 10 20 15 10 7 8 5 4 2 5 10 2 10 9 7 4 8 2 4 1
24 21 20 19 17 13 1 3 3 2 4 5 4 7 7 14 12 8 6 10 5 4 6 7 6 15 18 18 17 12 5 3 5 5 4 2 2 6 10 9 6 8 6 5
25 21 21 18 17 17 5 3 2 3 5 6 7 14 6 12 8 6 4 5 6 9 4 4 2 4 4 11 11 19 14 2 6 5 5 4 2 3 3 3 3 5 4 4
27 25 25 23 20 12 5 6 3 5 7 10 6 4 3 5 6 9 5 5 8 5 3 4 6 6 5 8 13 10 14 14 6 3 5 2 1 4 7 2 3 3 4 6
25 27 27 24 18 22 8 3 3 8 8 5 4 4 4 5 3 4 5 10 11 8 4 5 5 3 3 6 7 10 9 7 8 6 5 1 1 9 4 2 3 4 3 5
19 21 26 26 25 24 7 1 7 7 6 4 2 2 2 5 2 2 7 4 7 7 7 4 4 5 4 5 3 3 4 4 4 3 5 2 4 2 1 4 2 4 4 3
20 19 18 16 16 18 14 8 3 3 10 7 6 7 7 7 6 2 5 4 3 2 4 4 4 4 5 1 2 6 4 4 3 4 5 5 4 4 4 5 4 3 3 6
19 24 20 15 14 17 10 4 2 5 5 4 5 5 6 3 3 3 3 3 2 5 4 4 3 8 3 3 3 0 6 0 2 4 5 5 5 5 3 4 5 6 8 9
8 12 18 19 23 21 11 4 2 5 5 6 7 2 5 8 6 2 3 4 2 3 4 5 5 5 2 1 3 4 4 3 1 6 6 6 5 6 5 6 6 8 8 9
8 5 4 3 9 12 9 4 3 3 7 6 4 3 4 7 8 12 9 10 6 5 6 6 2 1 4 2 2 3 3 5 3 6 6 5 8 5 2 5 11 7 9 11
21 22 17 7 6 5 2 5 4 8 3 6 3 3 7 10 9 13 12 8 5 5 5 2 1 3 5 5 1 7 6 3 6 6 5 8 8 8 5 5 8 8 7 10
8 13 18 23 24 8 6 2 6 12 3 5 4 5 5 7 4 4 5 5 3 4 2 4 2 3 4 4 1 8 7 8 6 4 2 7 3 7 4 7 11 12 8 8
3 4 6 7 5 6 5 5 10 4 6 6 5 6 4 10 5 5 5 4 3 7 3 1 3 3 2 2 7 7 6 6 6 9 11 10 4 8 10 5 4 6 9 7
2 2 3 4 6 4 3 2 8 5 6 6 5 3 6 8 3 1 5 1 4 2 3 2 1 3 3 7 8 6 6 5 8 5 6 8 9 13 11 7 6 6 11 9
2 4 4 4 2 7 5 6 6 9 7 7 4 2 4 4 4 4 4 3 2 3 3 2 4 4 5 7 9 8 8 9 4 3 8 3 7 8 8 9 10 10 12 11
3 3 2 2 7 3 5 6 7 5 6 4 1 2 3 2 2 3 2 1 2 4 5 3 3 4 6 7 7 8 8 7 9 10 11 8 10 11 12 13 11 10 10 11
3 5 3 3 7 6 10 4 5 7 2 4 3 3 2 4 2 3 3 1 4 2 2 4 4 6 7 5 8 9 7 7 9 8 12 12 11 11 11 11 11 11 10 10
3 6 8 7 7 14 8 7 7 6 3 2 4 4 2 4 2 2 3 5 3 0 5 3 5 5 6 8 6 8 7 7 7 9 9 10 11 10 10 12 11 10 10 9
7 7 10 6 6 1 5 5 4 5 2 3 1 2 2 2 4 0 3 3 2 5 5 4 4 12 13 10 6 2 8 8 9 10 10 10 10 11 11 10 10 8 10 10
6 6 4 3 3 3 3 2 3 3 1 1 2 2 1 2 2 0 3 7 5 3 4 5 12 17 16 15 12 9 9 8 8 8 9 10 10 9 11 10 9 8 9 10
6 8 5 1 3 4 3 1 4 1 1 1 1 1 4 3 0 5 0 2 4 5 7 11 13 17 16 16 15 13 10 9 10 9 9 10 10 10 10 9 8 9 10 10
7 2 1 2 2 4 3 1 3 2 1 3 2 5 2 3 4 4 3 3 7 12 13 11 15 17 17 16 15 14 12 11 11 11 10 10 10 8 8 11 12 9 10 10
Wind_Direction
348 344 341 337 342 342 298 238 259 123 200 201 221 230 221 238 226 231 244 239 221 227 220 226 219 216 212 166 149 179 206 205 209 221 224 162 72 72 194 193 256 232 265 116
352 351 348 343 340 353 322 260 261 44 262 240 233 238 243 240 235 223 217 214 215 205 232 249 214 213 230 170 161 191 178 207 260 328 18 44 69 32 356 301 244 224 272 117
353 349 343 340 345 349 333 283 275 255 215 282 253 260 253 252 226 240 239 242 218 229 235 217 226 223 245 187 202 198 169 192 187 231 165 113 80 18 334 286 242 36 51 114
354 347 343 340 340 341 314 246 265 265 267 259 240 256 272 266 261 232 218 222 230 233 236 242 232 229 210 193 335 228 196 220 88 32 74 83 94 65 49 75 329 60 121 95
358 353 358 357 347 336 226 283 314 343 323 335 335 20 37 351 329 345 355 7 2 359 295 342 340 342 21 45 343 359 343 248 102 69 89 85 71 54 63 49 54 81 90 80
2 358 357 359 355 358 312 351 352 341 33 13 10 11 308 329 338 185 57 332 303 36 45 92 90 87 82 57 42 350 18 351 85 117 160 191 47 18 49 80 38 62 80 51
11 8 13 3 11 10 41 27 301 306 37 32 30 357 313 320 311 286 9 349 31 51 153 135 103 82 72 53 46 23 30 9 58 100 238 138 184 55 89 99 50 28 48 29
22 15 22 18 39 39 74 10 354 81 84 321 347 339 307 319 309 342 320 6 335 305 240 263 330 34 34 30 26 23 19 2 69 109 56 129 115 26 349 12 75 21 359 6
33 36 31 50 43 61 74 40 0 85 111 359 290 322 323 339 322 327 323 338 321 329 250 32 46 41 317 356 347 20 13 34 77 63 88 103 357 321 326 153 203 15 343 321
44 44 48 50 59 64 77 39 11 84 101 293 50 14 299 302 307 248 305 340 340 345 46 59 40 63 11 30 26 347 352 1 47 38 96 104 336 309 318 57 231 317 291 289
37 45 53 60 65 65 78 22 24 106 112 266 121 241 338 322 14 349 296 349 358 358 52 63 41 51 45 79 9 22 31 360 16 5 78 39 349 338 113 204 262 261 292 256
44 49 59 63 70 71 59 63 349 43 79 192 188 201 191 178 225 201 323 149 295 324 76 42 86 54 41 60 33 345 30 146 203 131 204 243 268 195 236 163 189 270 255 265
57 57 59 57 63 61 89 134 259 50 82 7 46 347 312 311 193 189 88 333 232 20 185 140 141 80 118 64 314 352 338 118 84 37 292 252 287 288 219 195 217 257 267 269
45 55 58 62 62 72 76 79 265 76 109 94 301 5 11 302 346 77 182 163 71 103 54 76 78 95 24 175 178 113 211 12 304 268 290 307 289 238 230 249 272 274 266 264
43 17 19 69 81 63 60 69 34 103 116 158 244 317 333 347 2 33 38 49 51 30 38 46 58 86 76 357 81 346 185 196 115 243 225 180 251 248 246 260 285 274 284 292
60 56 47 17 333 344 4 19 3 18 54 93 47 265 353 345 359 27 22 22 52 71 94 150 327 255 94 85 127 257 235 238 185 239 201 211 260 272 234 229 256 256 259 262
49 49 55 59 58 54 65 171 278 336 42 75 28 353 9 339 360 19 1 19 45 82 117 54 121 10 73 88 43 262 250 234 245 246 109 291 208 250 227 223 267 288 277 260
51 53 46 32 48 68 29 2 16 35 85 47 61 315 11 4 355 345 6 3 21 20 140 29 49 334 59 43 248 276 264 270 262 242 212 240 280 287 275 247 262 274 275 269
247 315 32 54 32 42 286 319 40 34 71 94 63 34 294 359 357 334 334 19 50 251 55 9 22 299 44 258 281 273 260 217 254 290 240 252 244 269 275 260 282 259 285 284
72 43 48 19 312 297 11 8 19 23 13 34 85 187 297 3 352 326 341 12 47 53 282 323 57 264 277 264 247 248 259 236 171 304 296 272 273 271 272 264 266 255 267 272
42 47 84 254 317 52 34 43 42 345 28 21 297 155 299 347 28 297 69 269 322 58 283 86 330 298 244 249 268 267 253 241 222 225 251 244 249 267 274 277 269 264 264 265
144 123 93 38 27 30 62 4 349 42 312 328 358 311 232 301 107 50 327 79 31 263 304 67 338 255 255 270 270 273 250 246 257 229 245 253 246 243 248 262 265 265 268 271
54 48 46 36 322 36 54 343 322 342 338 339 339 324 350 333 19 6 27 38 251 318 36 243 232 271 282 271 276 274 265 250 250 264 254 257 262 260 244 259 259 260 262 264
64 59 28 75 355 326 187 198 219 259 237 327 323 278 329 303 355 3 38 239 54 21 11 268 292 325 316 302 270 268 278 271 265 267 265 261 263 266 264 251 256 256 260 266
72 60 67 63 232 246 237 255 306 251 230 346 316 292 315 312 346 165 306 2 343 202 252 272 325 323 323 320 312 287 284 280 267 265 265 266 263 263 270 264 251 240 255 261
73 55 72 313 45 305 334 256 266 274 290 214 178 317 20 343 328 11 296 72 256 280 310 316 320 319 318 320 318 312 291 284 280 276 272 273 272 266 268 274 260 254 250 257
55 4 357 112 120 206 251 211 270 314 328 15 14 31 277 302 337 330 183 270 317 314 312 315 313 313 316 317 313 314 310 302 295 292 286 274 276 273 270 275 278 260 251 246